Location: Killam
(52.7910°N, 111.8608°W)
Time: 12:07:38
(UTC+00:00)

ISS - Pass Details

Date: 22 January 2026
Orbit: 413 x 428 km, 51.6° (Epoch: 18 February)

Event Time Altitude Azimuth Distance (km) Brightness Sun altitude
Rises 01:20:53 0° 265° (W) 2,361 1.9 -12.9°
Reaches altitude 10° 01:22:59 10° 263° (W) 1,501 0.5 -13.2°
Maximum altitude 01:26:20 74° 179° (S) 442 -3.7 -13.7°
Enters shadow 01:28:06 26° 98° (E) 877 -2.7 -14.0°
